Overview Statistics Trail Chart Weather Telemetry Raw packets
 

This is the latest recevied weather packets stored in our database for station/object IZ7EXI-13. If no packets are shown the sender has not sent any weather packets the latest 10 day(s).

<< 14 15 16 17 18 19 20 >>
Time Temp. Humidity Pressure Rain* Wind** Luminosity Snow
1788387755 25.56° C 73% 1018.9 hPa - - - -
1788386855 25.56° C 75% 1018.9 hPa - - - -
1788385955 25.56° C 77% 1018.9 hPa - - - -
1788385054 26.67° C 76% 1019 hPa - - - -
1788384154 26.67° C 76% 1018.9 hPa - - - -
1788383254 26.67° C 75% 1018.9 hPa - - - -
1788382354 27.22° C 74% 1018.8 hPa - - - -
1788381453 27.22° C 73% 1018.9 hPa - - - -
1788380553 27.22° C 74% 1018.9 hPa - - - -
1788379653 28.33° C 74% 1018.8 hPa - - - -
1788378753 28.33° C 74% 1018.8 hPa - - - -
1788377853 28.33° C 73% 1018.8 hPa - - - -
1788376952 28.33° C 73% 1018.9 hPa - - - -
1788376052 28.33° C 73% 1018.9 hPa - - - -
1788375152 28.33° C 73% 1018.6 hPa - - - -
1788374252 28.89° C 70% 1018.4 hPa - - - -
1788373351 28.89° C 68% 1018.3 hPa - - - -
1788372451 28.89° C 67% 1018.2 hPa - - - -
1788371551 28.89° C 67% 1018.1 hPa - - - -
1788370651 29.44° C 66% 1017.9 hPa - - - -
1788369751 30° C 64% 1017.9 hPa - - - -
1788368887 31.67° C 60% 1017.9 hPa - - - -
1788368850 31.67° C 60% 1017.9 hPa - - - -
1788367981 32.78° C 57% 1017.9 hPa - - - -
1788367950 32.78° C 57% 1017.9 hPa - - - -

* Rain since midnight (hover to see other rain measurements)
** Current wind speed in m/s (hover to see current wind gust speed)